AUI8857 UKBB-LDSP

Flight info

Callsign AUI8857
Flight time 2h 2m
Altitude 36000
Route BASOR M856 SULUM N145 VILIS/N0449F360 DCT DIRER DCT DAROJ DCT KENEM
Aircraft B738/M-SDE2E3FGHIRWXY/LB1

Departure

Time 2026-05-04 15:59
Airport Boryspil International Airport (UKBB)

Arrival

Time 2026-05-04 18:01
Airport Split Saint Jerome Airport (LDSP)
Time Latitude Longitude Altitude Speed Heading
2026-05-04 15:21 50.35261 30.89907 414 ft 0 kts 273°
2026-05-04 15:46 50.35261 30.89908 414 ft 1 kts 273°
2026-05-04 15:46 50.35261 30.89947 413 ft 4 kts 264°
2026-05-04 15:47 50.35266 30.89988 406 ft 4 kts 247°
2026-05-04 15:47 50.35280 30.90019 408 ft 4 kts 205°
2026-05-04 15:47 50.35292 30.90024 407 ft 1 kts 182°
2026-05-04 15:47 50.35294 30.90024 407 ft 1 kts 182°
2026-05-04 15:50 50.35293 30.90024 414 ft 1 kts 182°
2026-05-04 15:51 50.35266 30.90022 407 ft 7 kts 182°
2026-05-04 15:51 50.35200 30.90018 406 ft 12 kts 182°
2026-05-04 15:51 50.35107 30.90012 410 ft 13 kts 182°
2026-05-04 15:51 50.35016 30.90003 412 ft 13 kts 184°
2026-05-04 15:52 50.34928 30.90009 409 ft 13 kts 159°
2026-05-04 15:52 50.34891 30.90121 411 ft 12 kts 92°
2026-05-04 15:52 50.34849 30.90226 409 ft 12 kts 158°
2026-05-04 15:52 50.34767 30.90229 415 ft 12 kts 182°
2026-05-04 15:53 50.34685 30.90222 415 ft 12 kts 182°
2026-05-04 15:53 50.34593 30.90215 411 ft 14 kts 183°
2026-05-04 15:53 50.34490 30.90208 414 ft 16 kts 182°
2026-05-04 15:53 50.34376 30.90200 414 ft 17 kts 182°
2026-05-04 15:54 50.34253 30.90191 406 ft 18 kts 183°
2026-05-04 15:54 50.34122 30.90181 409 ft 21 kts 182°
2026-05-04 15:54 50.33963 30.90170 407 ft 23 kts 182°
2026-05-04 15:54 50.33806 30.90158 409 ft 22 kts 183°
2026-05-04 15:55 50.33655 30.90147 413 ft 22 kts 182°
2026-05-04 15:55 50.33505 30.90136 409 ft 21 kts 183°
2026-05-04 15:55 50.33362 30.90125 413 ft 20 kts 182°
2026-05-04 15:55 50.33223 30.90115 412 ft 20 kts 182°
2026-05-04 15:56 50.33087 30.90106 415 ft 19 kts 182°
2026-05-04 15:56 50.32956 30.90096 410 ft 19 kts 182°
2026-05-04 15:56 50.32829 30.90086 412 ft 18 kts 182°
2026-05-04 15:56 50.32706 30.90077 411 ft 17 kts 184°
2026-05-04 15:57 50.32588 30.90066 411 ft 17 kts 181°
2026-05-04 15:57 50.32479 30.90098 411 ft 16 kts 147°
2026-05-04 15:57 50.32444 30.90249 413 ft 15 kts 77°
2026-05-04 15:57 50.32511 30.90370 419 ft 15 kts 27°
2026-05-04 15:58 50.32653 30.90397 417 ft 44 kts
2026-05-04 15:58 50.33215 30.90438 421 ft 116 kts
2026-05-04 15:58 50.34232 30.90512 413 ft 174 kts
2026-05-04 15:58 50.35498 30.90628 996 ft 182 kts
2026-05-04 15:59 50.36769 30.90794 1768 ft 187 kts
2026-05-04 15:59 50.38152 30.90983 2214 ft 215 kts
2026-05-04 15:59 50.39743 30.91188 2426 ft 244 kts
2026-05-04 15:59 50.41479 30.91404 2958 ft 256 kts
2026-05-04 16:00 50.43329 30.91627 3409 ft 274 kts
2026-05-04 16:00 50.45216 30.91850 4476 ft 268 kts
2026-05-04 16:00 50.47061 30.92065 5480 ft 266 kts
2026-05-04 16:00 50.48909 30.92280 6435 ft 267 kts
2026-05-04 16:01 50.50765 30.92553 7269 ft 271 kts 11°
2026-05-04 16:01 50.52476 30.93827 8098 ft 277 kts 38°
2026-05-04 16:01 50.53671 30.96214 8986 ft 283 kts 63°
2026-05-04 16:01 50.54099 30.99257 9819 ft 292 kts 89°
2026-05-04 16:02 50.53664 31.02390 10406 ft 308 kts 112°
2026-05-04 16:02 50.52390 31.05265 10595 ft 337 kts 135°
2026-05-04 16:02 50.47875 31.08045 11393 ft 370 kts 183°
2026-05-04 16:03 50.45393 31.07031 12096 ft 372 kts 208°
2026-05-04 16:03 50.43206 31.04859 12872 ft 374 kts 217°
2026-05-04 16:03 50.41092 31.02426 13525 ft 381 kts 217°
2026-05-04 16:03 50.38910 31.00004 14138 ft 387 kts 215°
2026-05-04 16:04 50.36652 30.97685 14809 ft 390 kts 213°
2026-05-04 16:04 50.31984 30.93257 16144 ft 396 kts 211°
2026-05-04 16:04 50.29597 30.91053 16797 ft 400 kts 209°
2026-05-04 16:05 50.27012 30.89444 17395 ft 403 kts 191°
2026-05-04 16:05 50.24248 30.88670 18087 ft 404 kts 188°
2026-05-04 16:05 50.18652 30.87173 19212 ft 411 kts 188°
2026-05-04 16:06 50.15828 30.86381 19779 ft 414 kts 189°
2026-05-04 16:06 50.08233 30.84182 21259 ft 421 kts 189°
2026-05-04 16:07 50.04366 30.83061 21961 ft 425 kts 188°
2026-05-04 16:07 49.95566 30.80548 23512 ft 432 kts 188°
2026-05-04 16:08 49.92597 30.79704 23930 ft 435 kts 188°
2026-05-04 16:08 49.83596 30.77146 25165 ft 442 kts 188°
2026-05-04 16:09 49.77506 30.75420 25931 ft 447 kts 189°
2026-05-04 16:09 49.71402 30.73693 26679 ft 451 kts 189°
2026-05-04 16:10 49.66207 30.72227 27273 ft 455 kts 189°
2026-05-04 16:11 49.56899 30.68884 28278 ft 464 kts 203°
2026-05-04 16:11 49.54044 30.66525 28623 ft 467 kts 212°
2026-05-04 16:12 49.46713 30.56522 29562 ft 474 kts 223°
2026-05-04 16:12 49.39477 30.46067 30583 ft 474 kts 222°
2026-05-04 16:13 49.34672 30.39274 31277 ft 472 kts 222°
2026-05-04 16:13 49.29838 30.32457 31920 ft 472 kts 222°
2026-05-04 16:14 49.25002 30.25679 32579 ft 470 kts 222°
2026-05-04 16:14 49.20177 30.18948 33222 ft 469 kts 222°
2026-05-04 16:15 49.12950 30.08891 34110 ft 468 kts 221°
2026-05-04 16:16 49.08149 30.02229 34642 ft 466 kts 221°
2026-05-04 16:16 49.00966 29.92292 35413 ft 463 kts 221°
2026-05-04 16:17 48.96192 29.85714 35861 ft 463 kts 221°
2026-05-04 16:18 48.88995 29.75832 36007 ft 467 kts 221°
2026-05-04 16:18 48.86582 29.72526 36001 ft 465 kts 221°
2026-05-04 16:19 48.74688 29.56288 36003 ft 458 kts 221°
2026-05-04 16:20 48.62839 29.40220 36009 ft 458 kts 221°
2026-05-04 16:22 48.50920 29.24163 36012 ft 463 kts 221°
2026-05-04 16:23 48.36399 29.04740 36012 ft 467 kts 221°
2026-05-04 16:25 48.21761 28.85315 36012 ft 468 kts 221°
2026-05-04 16:26 48.05380 28.61727 36011 ft 467 kts 228°
2026-05-04 16:28 47.94435 28.43772 36011 ft 470 kts 227°
2026-05-04 16:28 47.89038 28.31678 36013 ft 468 kts 242°
2026-05-04 16:29 47.82860 28.14615 36013 ft 468 kts 242°
2026-05-04 16:30 47.78155 28.01953 35993 ft 456 kts 242°
2026-05-04 16:31 47.75106 27.93812 36003 ft 448 kts 241°
2026-05-04 16:32 47.66007 27.69643 36012 ft 448 kts 241°
2026-05-04 16:33 47.59894 27.53525 36016 ft 452 kts 241°
2026-05-04 16:34 47.55242 27.41325 36007 ft 454 kts 241°
2026-05-04 16:35 47.45878 27.16931 36011 ft 454 kts 241°
2026-05-04 16:36 47.41181 27.04779 36012 ft 453 kts 241°
2026-05-04 16:37 47.36488 26.92693 36013 ft 452 kts 241°
2026-05-04 16:38 47.30221 26.76636 36016 ft 451 kts 241°
2026-05-04 16:39 47.22368 26.56649 36016 ft 451 kts 240°
2026-05-04 16:40 47.16064 26.40711 36026 ft 451 kts 240°
2026-05-04 16:41 47.08143 26.20815 36038 ft 452 kts 240°
2026-05-04 16:43 47.00159 26.00907 36056 ft 454 kts 240°
2026-05-04 16:43 46.95335 25.88950 36061 ft 455 kts 240°
2026-05-04 16:45 46.85626 25.65040 36059 ft 456 kts 240°
2026-05-04 16:46 46.77487 25.45158 36057 ft 456 kts 240°
2026-05-04 16:47 46.70967 25.29332 36055 ft 454 kts 240°
2026-05-04 16:48 46.64447 25.13599 36053 ft 453 kts 240°
2026-05-04 16:49 46.57937 24.97977 36036 ft 453 kts 240°
2026-05-04 16:50 46.51365 24.82297 36039 ft 453 kts 240°
2026-05-04 16:51 46.46433 24.70588 36046 ft 454 kts 240°
2026-05-04 16:52 46.39833 24.54995 36048 ft 455 kts 240°
2026-05-04 16:53 46.34828 24.43229 36043 ft 456 kts 240°
2026-05-04 16:54 46.28175 24.27666 36046 ft 456 kts 239°
2026-05-04 16:55 46.18119 24.04308 36038 ft 456 kts 239°
2026-05-04 16:56 46.10305 23.86290 36050 ft 454 kts 239°
2026-05-04 16:57 46.05267 23.74734 36052 ft 454 kts 239°
2026-05-04 16:58 45.98524 23.59344 36063 ft 455 kts 239°
2026-05-04 17:00 45.88324 23.36219 36081 ft 458 kts 239°
2026-05-04 17:01 45.79751 23.16934 36067 ft 459 kts 239°
2026-05-04 17:02 45.72867 23.01540 36080 ft 458 kts 239°
2026-05-04 17:03 45.67702 22.90048 36084 ft 457 kts 239°
2026-05-04 17:03 45.62542 22.78612 36084 ft 457 kts 239°
2026-05-04 17:04 45.55639 22.63382 36095 ft 457 kts 239°
2026-05-04 17:05 45.48707 22.48173 36091 ft 458 kts 239°
2026-05-04 17:06 45.43505 22.36814 36089 ft 459 kts 239°
2026-05-04 17:07 45.38837 22.26657 36091 ft 459 kts 239°
2026-05-04 17:07 45.34756 22.17810 36088 ft 460 kts 239°
2026-05-04 17:08 45.29470 22.06388 36085 ft 462 kts 239°
2026-05-04 17:09 45.25935 21.98777 36084 ft 462 kts 239°
2026-05-04 17:09 45.22386 21.91154 36085 ft 462 kts 239°
2026-05-04 17:10 45.13503 21.72166 36079 ft 462 kts 239°
2026-05-04 17:11 45.09940 21.64584 36075 ft 462 kts 239°
2026-05-04 17:12 45.04599 21.53255 36076 ft 461 kts 239°
2026-05-04 17:13 44.96748 21.33735 36086 ft 454 kts 253°
2026-05-04 17:14 44.92404 21.16789 36119 ft 470 kts 254°
2026-05-04 17:15 44.88977 21.03815 36087 ft 474 kts 253°
2026-05-04 17:16 44.84328 20.86452 36075 ft 472 kts 253°
2026-05-04 17:17 44.79690 20.69227 36070 ft 468 kts 253°
2026-05-04 17:18 44.75072 20.52195 36077 ft 464 kts 253°
2026-05-04 17:19 44.70467 20.35324 36081 ft 461 kts 253°
2026-05-04 17:20 44.65857 20.18554 36072 ft 460 kts 253°
2026-05-04 17:20 44.62385 20.05999 36069 ft 460 kts 253°
2026-05-04 17:21 44.57738 19.89298 36061 ft 462 kts 253°
2026-05-04 17:22 44.55392 19.80908 36070 ft 462 kts 253°
2026-05-04 17:23 44.50674 19.64125 36056 ft 463 kts 252°
2026-05-04 17:24 44.47113 19.51536 36050 ft 463 kts 252°
2026-05-04 17:25 44.42363 19.34836 36052 ft 461 kts 252°
2026-05-04 17:26 44.37615 19.18251 36052 ft 458 kts 252°
2026-05-04 17:27 44.31412 18.97894 35959 ft 454 kts 248°
2026-05-04 17:28 44.26243 18.82119 36047 ft 445 kts 248°
2026-05-04 17:29 44.18577 18.58562 36058 ft 445 kts 248°
2026-05-04 17:31 44.12144 18.38955 36040 ft 444 kts 248°
2026-05-04 17:32 44.05720 18.19518 36051 ft 441 kts 248°
2026-05-04 17:33 44.00598 18.04123 36046 ft 440 kts 248°
2026-05-04 17:34 43.95444 17.88715 35835 ft 444 kts 248°
2026-05-04 17:35 43.91499 17.76981 34025 ft 448 kts 248°
2026-05-04 17:35 43.88876 17.69217 33035 ft 440 kts 248°
2026-05-04 17:35 43.87584 17.65401 32561 ft 436 kts 248°
2026-05-04 17:36 43.86298 17.61608 32123 ft 432 kts 248°
2026-05-04 17:36 43.85028 17.57865 31667 ft 429 kts 248°
2026-05-04 17:36 43.83762 17.54136 31233 ft 425 kts 248°
2026-05-04 17:36 43.82506 17.50441 30773 ft 422 kts 248°
2026-05-04 17:37 43.81260 17.46785 30352 ft 419 kts 248°
2026-05-04 17:37 43.80024 17.43159 29878 ft 416 kts 248°
2026-05-04 17:37 43.78786 17.39533 29385 ft 413 kts 248°
2026-05-04 17:37 43.77568 17.35971 28937 ft 409 kts 248°
2026-05-04 17:38 43.76359 17.32439 28499 ft 405 kts 248°
2026-05-04 17:38 43.75156 17.28931 28034 ft 402 kts 248°
2026-05-04 17:38 43.73961 17.25448 27592 ft 398 kts 247°
2026-05-04 17:38 43.72775 17.21996 27152 ft 397 kts 247°
2026-05-04 17:39 43.70392 17.15070 26268 ft 399 kts 247°
2026-05-04 17:39 43.69202 17.11622 25832 ft 396 kts 247°
2026-05-04 17:39 43.68022 17.08205 25401 ft 393 kts 247°
2026-05-04 17:40 43.66846 17.04803 24965 ft 391 kts 246°
2026-05-04 17:40 43.65676 17.01421 24534 ft 389 kts 246°
2026-05-04 17:40 43.64511 16.98063 24106 ft 387 kts 246°
2026-05-04 17:40 43.63050 16.94938 23613 ft 390 kts 229°
2026-05-04 17:41 43.60933 16.92610 23071 ft 392 kts 212°
2026-05-04 17:41 43.58572 16.90748 22621 ft 389 kts 210°
2026-05-04 17:41 43.56208 16.88957 22160 ft 387 kts 210°
2026-05-04 17:41 43.53862 16.87182 21723 ft 384 kts 210°
2026-05-04 17:42 43.51535 16.85404 21301 ft 381 kts 210°
2026-05-04 17:42 43.49234 16.83628 20873 ft 378 kts 210°
2026-05-04 17:42 43.46951 16.81854 20459 ft 375 kts 210°
2026-05-04 17:42 43.44693 16.80094 20043 ft 372 kts 210°
2026-05-04 17:43 43.42446 16.78341 19641 ft 370 kts 210°
2026-05-04 17:43 43.40213 16.76601 19238 ft 367 kts 210°
2026-05-04 17:43 43.37998 16.74878 18831 ft 365 kts 210°
2026-05-04 17:43 43.36538 16.73743 18557 ft 363 kts 210°
2026-05-04 17:44 43.33992 16.70806 18010 ft 357 kts 236°
2026-05-04 17:44 43.33284 16.69154 17739 ft 356 kts 245°
2026-05-04 17:44 43.32614 16.65904 17282 ft 354 kts 263°
2026-05-04 17:44 43.32422 16.62553 16875 ft 351 kts 266°
2026-05-04 17:45 43.32306 16.59220 16446 ft 349 kts 267°
2026-05-04 17:45 43.32197 16.55904 16037 ft 347 kts 267°
2026-05-04 17:45 43.32078 16.52606 15642 ft 344 kts 266°
2026-05-04 17:45 43.31947 16.49330 15245 ft 342 kts 266°
2026-05-04 17:46 43.31808 16.46078 14855 ft 340 kts 266°
2026-05-04 17:46 43.31665 16.42843 14459 ft 339 kts 265°
2026-05-04 17:46 43.31519 16.39619 14077 ft 337 kts 265°
2026-05-04 17:46 43.31373 16.36420 13664 ft 335 kts 265°
2026-05-04 17:47 43.31226 16.33221 13165 ft 336 kts 265°
2026-05-04 17:47 43.31079 16.30038 12766 ft 333 kts 265°
2026-05-04 17:47 43.30933 16.26874 12364 ft 331 kts 265°
2026-05-04 17:47 43.30787 16.23730 11973 ft 329 kts 265°
2026-05-04 17:48 43.30641 16.20604 11537 ft 328 kts 265°
2026-05-04 17:48 43.30494 16.17489 11179 ft 325 kts 265°
2026-05-04 17:48 43.30076 16.14463 10786 ft 321 kts 247°
2026-05-04 17:48 43.28920 16.11890 10522 ft 313 kts 227°
2026-05-04 17:49 43.27427 16.09767 10329 ft 305 kts 224°
2026-05-04 17:49 43.25937 16.07758 10190 ft 296 kts 224°
2026-05-04 17:49 43.24493 16.05795 10074 ft 288 kts 224°
2026-05-04 17:49 43.23096 16.03878 9852 ft 282 kts 224°
2026-05-04 17:50 43.21716 16.01974 9538 ft 281 kts 224°
2026-05-04 17:50 43.20344 16.00077 9241 ft 279 kts 224°
2026-05-04 17:50 43.18986 15.98197 8946 ft 277 kts 224°
2026-05-04 17:50 43.17636 15.96328 8659 ft 275 kts 226°
2026-05-04 17:51 43.16613 15.94143 8348 ft 275 kts 251°
2026-05-04 17:51 43.16432 15.91564 8078 ft 274 kts 278°
2026-05-04 17:51 43.17089 15.89144 7809 ft 273 kts 302°
2026-05-04 17:51 43.18333 15.87191 7549 ft 272 kts 315°
2026-05-04 17:52 43.19674 15.85418 7264 ft 271 kts 315°
2026-05-04 17:52 43.21130 15.83804 6963 ft 271 kts 333°
2026-05-04 17:52 43.22935 15.83193 6699 ft 269 kts
2026-05-04 17:52 43.24731 15.83786 6428 ft 266 kts 28°
2026-05-04 17:53 43.26183 15.85318 6155 ft 263 kts 46°
2026-05-04 17:53 43.27454 15.87119 5870 ft 263 kts 46°
2026-05-04 17:53 43.28717 15.88923 5594 ft 262 kts 46°
2026-05-04 17:53 43.29985 15.90718 5311 ft 261 kts 46°
2026-05-04 17:54 43.31235 15.92479 5191 ft 254 kts 45°
2026-05-04 17:54 43.32460 15.94201 5071 ft 249 kts 45°
2026-05-04 17:54 43.33659 15.95881 4953 ft 242 kts 45°
2026-05-04 17:54 43.34820 15.97506 4848 ft 235 kts 45°
2026-05-04 17:55 43.35950 15.99089 4739 ft 228 kts 45°
2026-05-04 17:55 43.37051 16.00633 4553 ft 226 kts 45°
2026-05-04 17:55 43.38152 16.02177 4336 ft 226 kts 45°
2026-05-04 17:55 43.39251 16.03728 4112 ft 226 kts 45°
2026-05-04 17:56 43.40297 16.05318 4027 ft 220 kts 49°
2026-05-04 17:56 43.41230 16.06916 3884 ft 211 kts 51°
2026-05-04 17:56 43.42111 16.08501 3626 ft 205 kts 52°
2026-05-04 17:56 43.42950 16.10021 3370 ft 194 kts 52°
2026-05-04 17:57 43.43738 16.11450 3152 ft 179 kts 52°
2026-05-04 17:57 43.44467 16.12769 2895 ft 165 kts 52°
2026-05-04 17:57 43.45152 16.14009 2696 ft 152 kts 52°
2026-05-04 17:57 43.45759 16.15106 2483 ft 148 kts 53°
2026-05-04 17:58 43.46381 16.16231 2291 ft 148 kts 53°
2026-05-04 17:58 43.47002 16.17354 2091 ft 147 kts 53°
2026-05-04 17:58 43.47623 16.18476 1904 ft 146 kts 53°
2026-05-04 17:58 43.48239 16.19590 1706 ft 146 kts 54°
2026-05-04 17:59 43.48854 16.20700 1519 ft 145 kts 54°
2026-05-04 17:59 43.49464 16.21802 1338 ft 143 kts 54°
2026-05-04 17:59 43.50675 16.24043 949 ft 150 kts 54°
2026-05-04 18:00 43.51313 16.25177 765 ft 154 kts 52°
2026-05-04 18:00 43.51974 16.26332 541 ft 150 kts 52°
2026-05-04 18:00 43.52605 16.27472 301 ft 147 kts 53°
2026-05-04 18:00 43.53187 16.28514 109 ft 145 kts 53°
2026-05-04 18:01 43.53729 16.29496 81 ft 106 kts 52°
2026-05-04 18:01 43.54011 16.30003 70 ft 21 kts 53°
2026-05-04 18:01 43.53985 16.30089 70 ft 15 kts 195°
2026-05-04 18:02 43.53843 16.29948 67 ft 12 kts 232°
2026-05-04 18:02 43.53805 16.29878 67 ft 6 kts 232°
2026-05-04 18:02 43.53776 16.29863 67 ft 4 kts 129°
2026-05-04 18:02 43.53768 16.29903 67 ft 4 kts 112°
2026-05-04 18:03 43.53760 16.29929 65 ft 0 kts 113°
2026-05-04 18:03 43.53760 16.29931 60 ft 0 kts 113°